Voltar ao catálogo

SL-8 DEB

AtivoPO
NORAD 18545·DEBRIS·🇷🇺 Russia

Lançado Dec 17, 1986 de Plesetsk Cosmodrome

Loading…

Próximas Passagens (próximas 24 horas)

TLE

AtualizadoSource: Space-Track

Época: Sep 14, 2026, 10:24 UTC

1 18545U 86100C   26257.43371916  .00001382  00000-0  71682-3 0  9995
2 18545  82.9183  59.4382 0013091 285.3687 103.8775 14.14136019 18257

Acompanhe SL-8 DEB em tempo real com AllMySat

Download on the App Store